WetterOnline ( https://www.wetteronline.de )

Wetter aktuell Bad Hersfeld

Aktuelles Wetter: Bad Hersfeld (273m)

6-stündlich | Neueste Meldungen
Ortszeit Temperatur Wetter
Di, 21.09. 2:00 4.8° C wolkenlos
Mo, 20.09. 20:00 11.0° C bedeckt
Mo, 20.09. 14:00 13.5° C bedeckt
Mo, 20.09. 8:00 7.5° C bedeckt
Mo, 20.09. 2:00 7.0° C wolkenlos
So, 19.09. 20:00 11.1° C bedeckt
So, 19.09. 14:00 12.9° C bedeckt
So, 19.09. 8:00 12.3° C bedeckt
Ortszeit Temperatur Wetter
Di, 21.09. 7:10 4.7° C bedeckt
Di, 21.09. 7:00 4.6° C bedeckt
Di, 21.09. 6:50 4.6° C bedeckt
Di, 21.09. 6:40 4.5° C bedeckt
Di, 21.09. 6:30 4.4° C bedeckt
Di, 21.09. 6:20 4.4° C bedeckt
Di, 21.09. 6:00 4.1° C bedeckt
Di, 21.09. 5:30 3.8° C bedeckt
Di, 21.09. 5:00 3.1° C fast wolkenlos
Di, 21.09. 4:30 3.2° C wolkenlos
Di, 21.09. 4:00 3.6° C wolkenlos
Ortszeit Relative Feuchte Sichtweite
Di, 21.09. 2:00 94% 27 km
Mo, 20.09. 20:00 66% >70 km
Mo, 20.09. 14:00 60% 45 km
Mo, 20.09. 8:00 91% 17 km
Mo, 20.09. 2:00 85% 30 km
So, 19.09. 20:00 74% 45 km
So, 19.09. 14:00 68% 40 km
So, 19.09. 8:00 87% 30 km
Ortszeit Relative Feuchte Sichtweite
Di, 21.09. 7:10 97% -
Di, 21.09. 7:00 96% 19 km
Di, 21.09. 6:50 96% -
Di, 21.09. 6:40 97% -
Di, 21.09. 6:30 97% 22 km
Di, 21.09. 6:20 97% -
Di, 21.09. 6:00 99% 14 km
Di, 21.09. 5:30 98% 13 km
Di, 21.09. 5:00 99% 15 km
Di, 21.09. 4:30 98% 7 km
Di, 21.09. 4:00 97% 16 km
Ortszeit Niederschlagsmenge Niederschlagsart
Di, 21.09. 2:00 0.0 l/m2 in 6 Std. -
Mo, 20.09. 20:00 0.0 l/m2 in 12 Std. -
Mo, 20.09. 14:00 0.0 l/m2 in 6 Std. -
Mo, 20.09. 8:00 0.0 l/m2 in 12 Std. -
Mo, 20.09. 2:00 0.0 l/m2 in 6 Std. -
So, 19.09. 20:00 0.0 l/m2 in 12 Std. -
So, 19.09. 14:00 0.0 l/m2 in 6 Std. -
So, 19.09. 8:00 0.0 l/m2 in 12 Std. -
Ortszeit Niederschlagsmenge Niederschlagsart
Di, 21.09. 7:10 keine Meldung -
Di, 21.09. 7:00 0.0 l/m2 in 1 Std. -
Di, 21.09. 6:50 keine Meldung -
Di, 21.09. 6:40 keine Meldung -
Di, 21.09. 6:30 0.0 l/m2 in 1 Std. -
Di, 21.09. 6:20 keine Meldung -
Di, 21.09. 6:00 0.0 l/m2 in 1 Std. -
Di, 21.09. 5:30 0.0 l/m2 in 1 Std. -
Di, 21.09. 5:00 0.0 l/m2 in 1 Std. -
Di, 21.09. 4:30 0.0 l/m2 in 1 Std. -
Di, 21.09. 4:00 0.0 l/m2 in 1 Std. -
Ortszeit Stärke Spitze Richtung
km/h Bft. km/h Grad Sektor
Di, 21.09. 2:00 4 1 14 80° O
Mo, 20.09. 20:00 9 2 20 50° NO
Mo, 20.09. 14:00 11 2 25 70° O
Mo, 20.09. 8:00 0 0 11 - -
Mo, 20.09. 2:00 9 2 28 80° O
So, 19.09. 20:00 7 2 29 30° NO
So, 19.09. 14:00 15 3 31 40° NO
So, 19.09. 8:00 7 2 25 30° NO
Ortszeit Stärke Spitze Richtung
km/h Bft. km/h Grad Sektor
Di, 21.09. 7:10 2 1 - 230° SW
Di, 21.09. 7:00 0 0 7 - -
Di, 21.09. 6:50 0 0 - 10° N
Di, 21.09. 6:40 2 1 - 10° N
Di, 21.09. 6:30 4 1 7 310° NW
Di, 21.09. 6:20 4 1 - 310° NW
Di, 21.09. 6:00 2 1 4 180° S
Di, 21.09. 5:30 0 0 4 - -
Di, 21.09. 5:00 0 0 4 - -
Di, 21.09. 4:30 0 0 4 - -
Di, 21.09. 4:00 0 0 4 - -
Ortszeit Untergrenze Bedeckung Gattung
total tief tief mittel hoch
Di, 21.09. 2:00 - 0/8 0/8 - - -
Mo, 20.09. 20:00 1380 m 8/8 8/8 - - -
Mo, 20.09. 14:00 1320 m 8/8 8/8 - - -
Mo, 20.09. 8:00 1110 m 8/8 8/8 - - -
Mo, 20.09. 2:00 - 0/8 0/8 - - -
So, 19.09. 20:00 930 m 8/8 8/8 - - -
So, 19.09. 14:00 840 m 8/8 8/8 - - -
So, 19.09. 8:00 1080 m 8/8 8/8 - - -
Ortszeit Bedeckungsgrad in Achtel und Wolkenuntergrenze
Di, 21.09. 7:10 8(1500m)
Di, 21.09. 7:00 8(1500m)
Di, 21.09. 6:50 8(1500m)
Di, 21.09. 6:40 8(1500m)
Di, 21.09. 6:30 8(1500m)
Di, 21.09. 6:20 8(1500m)
Di, 21.09. 6:00 8(1500m)
Di, 21.09. 5:30 8(1500m)
Di, 21.09. 5:00 1(1500m)
Di, 21.09. 4:30 keine Wolken
Di, 21.09. 4:00 keine Wolken
Ortszeit Luftdruck NN (hPa) Tendenz (hPa in 3 Std.)
Di, 21.09. 2:00 1027 + 1,0
Mo, 20.09. 20:00 1024 + 1,4
Mo, 20.09. 14:00 1021 + 0,5
Mo, 20.09. 8:00 1020 + 0,8
Mo, 20.09. 2:00 1019 + 0,6
So, 19.09. 20:00 1018 + 1,0
So, 19.09. 14:00 1017 + 0,1
So, 19.09. 8:00 1016 - 0,1
Ortszeit Luftdruck NN (hPa) Tendenz (hPa in 3 Std.)
Di, 21.09. 7:10 1029 keine Meldung
Di, 21.09. 7:00 1029 + 1,0
Di, 21.09. 6:50 1029 keine Meldung
Di, 21.09. 6:40 1028 keine Meldung
Di, 21.09. 6:30 1028 + 0,5
Di, 21.09. 6:20 1028 keine Meldung
Di, 21.09. 6:00 1028 + 0,8
Di, 21.09. 5:30 1028 + 0,8
Di, 21.09. 5:00 1028 + 0,6
Di, 21.09. 4:30 1028 + 0,6
Di, 21.09. 4:00 1028 + 0,5
Ortszeit Schneehöhe (cm)
Di, 21.09. 2:00 -
Mo, 20.09. 20:00 -
Mo, 20.09. 14:00 -
Mo, 20.09. 8:00 -
Mo, 20.09. 2:00 -
So, 19.09. 20:00 -
So, 19.09. 14:00 -
So, 19.09. 8:00 -
Ortszeit Schneehöhe (cm)
Di, 21.09. 7:10 -
Di, 21.09. 7:00 -
Di, 21.09. 6:50 -
Di, 21.09. 6:40 -
Di, 21.09. 6:30 -
Di, 21.09. 6:20 -
Di, 21.09. 6:00 -
Di, 21.09. 5:30 -
Di, 21.09. 5:00 -
Di, 21.09. 4:30 -
Di, 21.09. 4:00 -
Link zu dieser Seite / Seite empfehlen

Das Wetter in ...